SCP
0 0 0 0 0 0 0 0 0 0 0 0 0 0 0 0 0 0 0 0 0 0 0 0 0 0 0 0 0 0 0 0 0 0 0 0 0 0
0 0 0 0 0 0 0 0 0 0 0 0 0 0 0 0 0 0 0 0 0 0 0 0 0 0 0 0 0 0 0 0 0 0 0 0 0 0
0 0 0 0 0 0 0 0 0 0 0 0 0 0 0 0 0 0 0 0 0 0 0 0 0 0 0 0 0 0 0 0 0 0 0 0 0 0
0 0 0 0 0 0 0 0 0 0 0 0 0 0 0 0 0 0 0 0 0 0 0 0 0 0 -0 0 -0 0 0 0 0 0 0 0 0 0
0 0 0 0 0 0 0 0 0 0 0 0 0 0 0 0 0 0 0 0 0 0 0 0 0 0 0 -0 -0 -0 0 0 0 0 0 0 0 0
0 0 0 0 0 0 0 0 0 0 0 0 0 0 0 0 0 0 0 0 0 0 0 0 0 0 0 0 0 0 0 0 0 0 0 0 0 0
0 0 0 0 0 0 0 0 0 0 0 0 0 0 0 0 0 0 0 0 0 0 0 0 0 0 0 0 0 0 0 0 -0 -0 0 0 0 0
0 0 0 0 0 0 0 0 0 0 0 0 0 0 0 0 0 0 0 0 0 0 0 0 0 -0 0 0 -0 0 0 0 0 0 0 0 -0 -0
0 0 0 0 0 0 0 0 0 0 0 0 0 0 0 0 0 0 0 0 0 0 0 0 0 0 0 0 0 0 0 0 0 0 -0 -0 -0 -0
0 0 0 0 0 0 -0 0 0 0 0 0 0 0 0 0 0 0 0 0 0 0 0 0 0 0 0 0 0 -0 0 0 0 -0 -0 -0 -0 -0
0 0 0 0 0 0 -0 -0 0 0 0 0 0 0 0 0 0 0 0 0 0 0 0 0 0 0 0 0 0 0 0 0 -0 -0 -0 -0 -0 -0
0 0 0 0 0 0 0 0 0 0 0 0 0 0 0 0 0 0 0 0 0 0 0 0 0 0 0 0 0 0 0 -0 -0 -0 -0 -0 -0 0
0 0 0 0 0 0 -0 0 0 0 0 0 0 0 0 0 0 0 0 0 0 0 0 0 0 0 0 0 0 0 0 -0 0 -0 -0 -0 -0 0
0 0 0 -0 -0 -0 0 0 0 0 0 0 0 0 0 0 0 0 0 0 0 0 0 0 0 0 0 0 0 0 -0 0 0 0 0 0 0 0
0 0 -0 -0 -0 0 0 0 0 0 0 0 0 0 0 0 0 0 0 0 0 0 0 0 0 0 0 0 0 0 -0 0 0 0 0 0 0 0
0 0 0 -0 -0 0 0 0 0 0 0 0 0 0 0 0 0 0 0 0 0 0 0 0 0 0 0 0 0 0 0 0 0 0 0 0 0 0
-0 0 0 0 0 0 0 0 0 0 0 0 0 0 -0 0 0 0 0 0 0 0 0 0 0 0 0 0 0 0 0 0 0 0 0 0 0 0
0 0 0 0 0 0 0 0 0 0 0 0 0 0 -0 0 0 0 0 0 0 0 0 0 0 0 0 0 0 0 0 0 0 0 0 0 0 0
0 0 0 0 0 0 0 0 0 0 0 0 0 0 0 0 0 0 0 0 0 0 0 0 0 0 0 0 0 0 0 0 0 0 0 0 0 0
0 0 0 0 0 0 0 0 0 0 0 0 0 -0 0 0 0 0 0 0 0 0 0 0 0 0 0 0 0 0 0 0 0 0 0 0 0 0
0 0 0 0 0 0 0 0 0 0 0 0 -0 -0 0 0 -0 0 0 0 0 0 0 0 0 0 0 0 0 0 0 0 0 0 0 0 0 0
0 0 0 0 0 0 0 0 0 0 0 0 0 0 0 0 -0 0 0 0 0 0 0 0 0 0 0 0 0 0 0 0 0 0 0 0 0 0
0 0 0 0 0 0 0 0 0 0 0 0 0 0 0 -0 -0 0 0 0 0 0 0 0 0 0 0 0 0 0 0 0 0 0 0 0 -0 0
Wind_Speed_500mb
4 9 12 17 15 14 16 19 25 33 37 27 40 39 41 41 42 45 45 46 48 53 55 61 54 51 54 53 52 46 35 33 29 33 35 36 37 36
6 12 14 13 13 14 15 17 18 25 30 38 41 41 43 42 42 45 46 47 45 56 57 47 50 55 51 45 38 31 28 30 32 34 36 39 42 43
8 13 15 14 10 14 16 18 19 23 34 41 40 41 41 44 46 50 43 44 40 49 51 49 47 40 37 39 35 32 31 33 37 38 41 42 43 45
13 13 13 13 15 20 18 23 23 27 31 44 44 44 43 44 50 47 43 39 44 46 45 49 48 37 36 36 36 35 38 43 43 42 42 44 46 48
17 14 14 15 19 22 24 25 24 29 30 36 41 40 41 42 49 48 48 45 46 44 43 49 49 40 37 37 37 35 44 47 50 51 51 51 53 55
16 17 18 19 22 27 24 26 27 29 28 31 36 39 39 42 40 52 61 52 61 43 40 46 43 42 43 44 45 45 45 53 56 55 51 55 52 58
22 22 21 23 26 28 33 32 33 26 28 32 34 38 40 48 48 55 54 65 65 36 61 49 38 41 39 38 38 46 48 54 59 55 56 49 45 42
24 19 21 23 25 29 30 29 33 38 34 36 34 40 43 45 55 61 60 65 71 57 69 48 32 37 36 37 41 36 49 57 57 52 54 46 43 45
23 21 18 19 26 24 28 38 37 44 45 45 38 39 47 51 57 61 61 61 67 63 63 60 55 53 44 44 37 42 49 52 55 57 46 46 44 34
25 21 20 25 29 34 35 30 28 28 36 37 36 38 43 44 46 51 56 60 62 55 48 54 60 59 55 29 35 45 40 47 56 50 48 39 28 23
24 25 24 27 33 39 33 31 31 31 34 45 50 51 52 48 52 53 57 59 66 69 40 56 67 70 63 41 42 43 39 47 55 48 51 46 26 25
23 26 28 32 36 39 41 43 40 35 40 40 41 39 49 41 40 46 50 54 56 62 44 62 63 64 47 53 50 46 47 48 54 47 53 47 30 18
18 17 27 33 35 40 43 44 41 46 39 38 39 40 37 47 50 47 47 44 49 47 48 42 59 59 50 64 62 59 46 47 57 43 47 38 33 27
20 21 27 31 32 39 42 37 46 39 35 39 40 44 43 51 55 50 43 43 34 37 39 35 45 46 45 54 57 64 51 34 52 48 47 42 38 32
27 27 26 30 39 36 42 49 42 40 40 44 45 48 44 55 50 46 43 38 35 31 35 34 37 36 31 40 54 56 47 33 50 49 36 46 53 41
27 28 31 36 38 37 35 34 39 42 42 43 45 45 43 55 53 52 55 52 48 41 35 36 31 29 30 36 43 46 37 29 44 53 32 44 53 54
28 22 22 25 26 31 30 35 41 42 44 44 45 50 51 59 57 56 54 54 53 53 49 40 33 27 23 43 52 45 39 40 44 54 32 53 54 55
27 24 26 24 28 30 32 39 41 46 45 44 46 52 63 62 60 59 58 59 62 54 49 47 48 42 39 37 49 48 40 39 37 41 37 53 59 58
29 27 25 23 29 30 36 39 42 44 44 45 46 52 65 65 65 63 63 60 57 55 49 43 42 46 46 45 43 50 47 34 36 36 33 47 54 55
28 26 22 26 28 31 34 38 39 44 46 46 45 51 67 70 70 66 62 60 59 56 53 42 35 36 35 31 37 43 48 45 33 39 43 40 48 56
27 23 26 27 28 32 35 37 40 45 48 45 45 52 68 64 69 63 61 61 60 54 52 46 33 27 25 23 32 39 40 47 49 38 34 33 43 46
23 26 27 27 30 34 35 39 42 44 46 46 48 52 65 63 61 63 62 65 61 53 48 36 28 26 30 33 32 34 36 40 48 44 39 37 34 29
24 25 25 28 30 34 36 40 41 41 46 51 51 53 62 64 61 61 59 64 59 53 50 41 31 29 33 32 29 31 33 36 46 46 43 47 48 43
Wind_Direction_500mb
353 338 339 334 338 329 331 337 337 329 327 331 330 327 329 326 323 328 326 317 323 326 327 326 327 327 326 322 315 313 313 312 305 288 277 279 280 280
1 336 343 349 342 337 342 343 337 325 314 322 321 325 325 328 324 327 324 330 324 323 326 328 328 329 333 335 328 321 319 308 303 297 291 287 284 286
2 1 358 3 343 349 353 349 341 327 316 318 324 322 323 331 331 332 332 328 325 319 332 330 328 335 346 351 347 336 327 322 317 310 302 297 293 291
44 20 21 11 22 2 0 348 339 333 322 317 324 331 335 336 332 337 331 330 328 328 331 338 341 340 338 346 342 343 345 336 324 316 307 298 293 290
61 49 32 20 15 9 3 353 342 335 329 319 327 332 336 332 340 341 341 338 338 337 329 327 324 343 346 350 350 340 337 336 333 323 313 308 296 291
68 62 36 20 22 20 11 357 349 344 331 331 332 333 339 336 339 341 348 349 347 345 328 327 331 329 329 330 329 332 327 325 323 319 310 307 299 301
77 57 36 27 23 20 19 9 6 354 347 339 340 335 338 339 340 338 337 343 352 338 333 336 331 327 329 322 317 313 325 328 326 320 319 313 310 306
77 68 41 21 23 17 13 8 11 4 350 342 334 332 330 335 332 338 339 338 335 350 340 351 340 312 313 317 314 311 325 329 328 330 323 319 312 309
83 67 50 24 25 12 13 9 356 355 354 349 331 332 331 333 332 339 342 338 333 339 340 341 344 339 329 321 320 330 326 330 338 336 328 317 316 312
77 65 46 30 23 20 22 3 359 353 342 349 340 334 334 336 338 339 338 335 336 341 338 328 347 345 347 351 325 318 330 339 346 354 337 332 337 317
73 56 42 35 26 22 24 9 5 353 350 351 352 350 352 348 345 343 340 340 339 347 347 335 338 340 352 354 341 338 347 346 358 359 359 354 348 338
61 47 40 35 27 22 25 19 10 357 355 357 357 351 341 344 348 344 341 339 340 341 345 334 335 345 337 353 356 351 355 356 3 6 355 348 3 18
71 50 36 34 25 26 23 19 14 18 359 355 356 355 352 348 356 351 347 344 337 331 341 330 325 338 334 332 352 1 355 357 356 14 3 17 15 11
77 56 40 35 31 32 26 17 25 20 4 1 0 359 357 351 358 357 355 356 349 338 342 338 323 335 333 335 346 353 359 353 357 18 7 31 35 35
70 54 43 36 33 19 17 24 17 14 11 7 3 1 359 357 357 2 2 357 3 3 358 352 345 344 349 351 348 345 350 4 358 7 16 30 33 52
58 41 38 30 20 24 17 14 16 12 13 8 4 1 1 4 6 5 358 358 2 8 15 10 359 348 354 5 3 9 10 357 8 19 21 36 44 56
64 44 38 34 22 25 14 16 15 13 13 9 6 5 6 9 10 13 8 7 8 1 3 10 21 18 22 27 20 19 19 19 24 15 46 50 50 60
63 50 39 30 28 20 15 22 16 12 11 6 8 7 11 13 10 13 11 10 6 6 4 5 10 20 37 29 27 25 29 33 20 28 56 58 59 68
63 50 36 27 31 20 20 21 16 10 10 10 11 3 14 18 13 11 10 8 6 9 12 9 12 11 16 19 30 27 30 38 23 50 56 63 63 79
57 51 33 28 28 24 23 21 13 12 14 12 11 4 15 13 11 11 10 7 5 10 10 15 18 18 12 13 18 31 33 41 41 51 61 72 71 94
55 44 37 29 26 26 24 20 15 15 12 12 13 6 14 6 9 11 12 13 8 11 11 14 19 20 27 49 42 43 47 47 47 65 59 78 72 96
51 42 35 32 28 29 23 23 17 12 11 15 15 13 14 5 1 9 15 8 4 12 16 18 24 28 33 41 42 43 53 59 58 63 68 61 65 79
51 45 38 33 32 30 25 26 20 9 10 19 17 13 12 3 4 7 14 11 12 19 22 28 34 36 39 44 51 51 58 63 65 65 67 68 62 80
Wind_Speed_850mb
4 9 12 17 15 14 16 19 25 33 37 27 40 39 41 41 42 45 45 46 48 53 55 61 54 51 54 53 52 46 35 33 29 33 35 36 37 36
6 12 14 13 13 14 15 17 18 25 30 38 41 41 43 42 42 45 46 47 45 56 57 47 50 55 51 45 38 31 28 30 32 34 36 39 42 43
8 13 15 14 10 14 16 18 19 23 34 41 40 41 41 44 46 50 43 44 40 49 51 49 47 40 37 39 35 32 31 33 37 38 41 42 43 45
13 13 13 13 15 20 18 23 23 27 31 44 44 44 43 44 50 47 43 39 44 46 45 49 48 37 36 36 36 35 38 43 43 42 42 44 46 48
17 14 14 15 19 22 24 25 24 29 30 36 41 40 41 42 49 48 48 45 46 44 43 49 49 40 37 37 37 35 44 47 50 51 51 51 53 55
16 17 18 19 22 27 24 26 27 29 28 31 36 39 39 42 40 52 61 52 61 43 40 46 43 42 43 44 45 45 45 53 56 55 51 55 52 58
22 22 21 23 26 28 33 32 33 26 28 32 34 38 40 48 48 55 54 65 65 36 61 49 38 41 39 38 38 46 48 54 59 55 56 49 45 42
24 19 21 23 25 29 30 29 33 38 34 36 34 40 43 45 55 61 60 65 71 57 69 48 32 37 36 37 41 36 49 57 57 52 54 46 43 45
23 21 18 19 26 24 28 38 37 44 45 45 38 39 47 51 57 61 61 61 67 63 63 60 55 53 44 44 37 42 49 52 55 57 46 46 44 34
25 21 20 25 29 34 35 30 28 28 36 37 36 38 43 44 46 51 56 60 62 55 48 54 60 59 55 29 35 45 40 47 56 50 48 39 28 23
24 25 24 27 33 39 33 31 31 31 34 45 50 51 52 48 52 53 57 59 66 69 40 56 67 70 63 41 42 43 39 47 55 48 51 46 26 25
23 26 28 32 36 39 41 43 40 35 40 40 41 39 49 41 40 46 50 54 56 62 44 62 63 64 47 53 50 46 47 48 54 47 53 47 30 18
18 17 27 33 35 40 43 44 41 46 39 38 39 40 37 47 50 47 47 44 49 47 48 42 59 59 50 64 62 59 46 47 57 43 47 38 33 27
20 21 27 31 32 39 42 37 46 39 35 39 40 44 43 51 55 50 43 43 34 37 39 35 45 46 45 54 57 64 51 34 52 48 47 42 38 32
27 27 26 30 39 36 42 49 42 40 40 44 45 48 44 55 50 46 43 38 35 31 35 34 37 36 31 40 54 56 47 33 50 49 36 46 53 41
27 28 31 36 38 37 35 34 39 42 42 43 45 45 43 55 53 52 55 52 48 41 35 36 31 29 30 36 43 46 37 29 44 53 32 44 53 54
28 22 22 25 26 31 30 35 41 42 44 44 45 50 51 59 57 56 54 54 53 53 49 40 33 27 23 43 52 45 39 40 44 54 32 53 54 55
27 24 26 24 28 30 32 39 41 46 45 44 46 52 63 62 60 59 58 59 62 54 49 47 48 42 39 37 49 48 40 39 37 41 37 53 59 58
29 27 25 23 29 30 36 39 42 44 44 45 46 52 65 65 65 63 63 60 57 55 49 43 42 46 46 45 43 50 47 34 36 36 33 47 54 55
28 26 22 26 28 31 34 38 39 44 46 46 45 51 67 70 70 66 62 60 59 56 53 42 35 36 35 31 37 43 48 45 33 39 43 40 48 56
27 23 26 27 28 32 35 37 40 45 48 45 45 52 68 64 69 63 61 61 60 54 52 46 33 27 25 23 32 39 40 47 49 38 34 33 43 46
23 26 27 27 30 34 35 39 42 44 46 46 48 52 65 63 61 63 62 65 61 53 48 36 28 26 30 33 32 34 36 40 48 44 39 37 34 29
24 25 25 28 30 34 36 40 41 41 46 51 51 53 62 64 61 61 59 64 59 53 50 41 31 29 33 32 29 31 33 36 46 46 43 47 48 43
Wind_Direction_850mb
353 338 339 334 338 329 331 337 337 329 327 331 330 327 329 326 323 328 326 317 323 326 327 326 327 327 326 322 315 313 313 312 305 288 277 279 280 280
1 336 343 349 342 337 342 343 337 325 314 322 321 325 325 328 324 327 324 330 324 323 326 328 328 329 333 335 328 321 319 308 303 297 291 287 284 286
2 1 358 3 343 349 353 349 341 327 316 318 324 322 323 331 331 332 332 328 325 319 332 330 328 335 346 351 347 336 327 322 317 310 302 297 293 291
44 20 21 11 22 2 0 348 339 333 322 317 324 331 335 336 332 337 331 330 328 328 331 338 341 340 338 346 342 343 345 336 324 316 307 298 293 290
61 49 32 20 15 9 3 353 342 335 329 319 327 332 336 332 340 341 341 338 338 337 329 327 324 343 346 350 350 340 337 336 333 323 313 308 296 291
68 62 36 20 22 20 11 357 349 344 331 331 332 333 339 336 339 341 348 349 347 345 328 327 331 329 329 330 329 332 327 325 323 319 310 307 299 301
77 57 36 27 23 20 19 9 6 354 347 339 340 335 338 339 340 338 337 343 352 338 333 336 331 327 329 322 317 313 325 328 326 320 319 313 310 306
77 68 41 21 23 17 13 8 11 4 350 342 334 332 330 335 332 338 339 338 335 350 340 351 340 312 313 317 314 311 325 329 328 330 323 319 312 309
83 67 50 24 25 12 13 9 356 355 354 349 331 332 331 333 332 339 342 338 333 339 340 341 344 339 329 321 320 330 326 330 338 336 328 317 316 312
77 65 46 30 23 20 22 3 359 353 342 349 340 334 334 336 338 339 338 335 336 341 338 328 347 345 347 351 325 318 330 339 346 354 337 332 337 317
73 56 42 35 26 22 24 9 5 353 350 351 352 350 352 348 345 343 340 340 339 347 347 335 338 340 352 354 341 338 347 346 358 359 359 354 348 338
61 47 40 35 27 22 25 19 10 357 355 357 357 351 341 344 348 344 341 339 340 341 345 334 335 345 337 353 356 351 355 356 3 6 355 348 3 18
71 50 36 34 25 26 23 19 14 18 359 355 356 355 352 348 356 351 347 344 337 331 341 330 325 338 334 332 352 1 355 357 356 14 3 17 15 11
77 56 40 35 31 32 26 17 25 20 4 1 0 359 357 351 358 357 355 356 349 338 342 338 323 335 333 335 346 353 359 353 357 18 7 31 35 35
70 54 43 36 33 19 17 24 17 14 11 7 3 1 359 357 357 2 2 357 3 3 358 352 345 344 349 351 348 345 350 4 358 7 16 30 33 52
58 41 38 30 20 24 17 14 16 12 13 8 4 1 1 4 6 5 358 358 2 8 15 10 359 348 354 5 3 9 10 357 8 19 21 36 44 56
64 44 38 34 22 25 14 16 15 13 13 9 6 5 6 9 10 13 8 7 8 1 3 10 21 18 22 27 20 19 19 19 24 15 46 50 50 60
63 50 39 30 28 20 15 22 16 12 11 6 8 7 11 13 10 13 11 10 6 6 4 5 10 20 37 29 27 25 29 33 20 28 56 58 59 68
63 50 36 27 31 20 20 21 16 10 10 10 11 3 14 18 13 11 10 8 6 9 12 9 12 11 16 19 30 27 30 38 23 50 56 63 63 79
57 51 33 28 28 24 23 21 13 12 14 12 11 4 15 13 11 11 10 7 5 10 10 15 18 18 12 13 18 31 33 41 41 51 61 72 71 94
55 44 37 29 26 26 24 20 15 15 12 12 13 6 14 6 9 11 12 13 8 11 11 14 19 20 27 49 42 43 47 47 47 65 59 78 72 96
51 42 35 32 28 29 23 23 17 12 11 15 15 13 14 5 1 9 15 8 4 12 16 18 24 28 33 41 42 43 53 59 58 63 68 61 65 79
51 45 38 33 32 30 25 26 20 9 10 19 17 13 12 3 4 7 14 11 12 19 22 28 34 36 39 44 51 51 58 63 65 65 67 68 62 80